Home   Weather   Mettlach   Past weeks
Flag for Germany

Past Weather in Mettlach, Saarland, Germany — Yesterday and Last 2 Weeks

Now
54 °F

Sprinkles. Partly sunny.


Feels Like: 49 °F
Forecast: 57 / 51 °F
Wind: 14 mph from South

Location: Luxembourg Airport

Current Time: Oct 18, 2019 at 11:27:52 am

Latest Report: Oct 18, 2019 at 10:20 am


Visibility: N/A

Pressure: 29.80 "Hg

Humidity: 94%

Dew Point: 52 °F

Location of MettlachLocation

Past Weather in Mettlach — Graph

°F

Mettlach Temperature Yesterday

Maximum temperature yesterday: 55 °F (at 12:20 am)
Minimum temperature yesterday: 54 °F (at 3:50 am)
Average temperature yesterday: 55 °F

High & Low Weather Summary for the Past Weeks

 TemperatureHumidityPressure
High73 °F (Oct 13, 3:20 pm)100% (Oct 4, 8:50 am)30.12 "Hg (Oct 4, 8:50 am)
Low41 °F (Oct 3, 9:20 am)54% (Oct 3, 4:20 pm)29.71 "Hg (Oct 4, 2:20 pm)
Average53 °F88%29.91 "Hg
* Reported Oct 3 9:20 am — Oct 18 9:50 am, Mettlach. Weather by CustomWeather, © 2019

Note: Actual official high and low records may vary slightly from our data, if they occured in-between our weather recording intervals... More about our weather records

Advertising

Mettlach Weather History for the Previous 24 Hours

Scroll right to see more
 ConditionsComfort  
Time TempWeatherWind HumidityBarometerVisibility
9:50 am
Fri, Oct 18
54 °FSprinkles. Broken clouds.14 mph100%29.80 "HgN/A
9:20 am54 °FSprinkles. Broken clouds.14 mph100%29.80 "HgN/A
8:50 am54 °FBroken clouds.13 mph94%29.80 "HgN/A
8:20 am54 °FBroken clouds.13 mph94%29.80 "HgN/A
7:50 am54 °FPassing clouds.14 mph100%29.80 "HgN/A
7:20 am54 °FPartly cloudy.12 mph100%29.80 "HgN/A
6:50 am54 °FPartly cloudy.13 mph100%29.80 "HgN/A
6:20 am54 °FLight rain. Partly cloudy.12 mph100%29.80 "Hg4 mi
5:50 am54 °FLight rain. Mostly cloudy.13 mph100%29.83 "Hg4 mi
5:20 am54 °FSprinkles. Mostly cloudy.12 mph100%29.83 "Hg5 mi
4:50 am54 °FLight rain. Partly cloudy.12 mph100%29.83 "Hg4 mi
4:20 am54 °FDrizzle. Overcast.10 mph100%29.86 "HgN/A
3:50 am54 °FPartly cloudy.8 mph100%29.86 "Hg4 mi
3:20 am54 °FMostly cloudy.8 mph100%29.86 "Hg4 mi
2:50 am54 °FMostly cloudy.8 mph100%29.86 "Hg6 mi
2:20 am54 °FMostly cloudy.9 mph100%29.86 "Hg6 mi
1:50 am54 °FPassing clouds.9 mph100%29.89 "HgN/A
1:20 am54 °FPartly cloudy.7 mph100%29.89 "Hg5 mi
12:50 am54 °FPartly cloudy.7 mph100%29.89 "HgN/A
12:20 am54 °FPartly cloudy.8 mph100%29.89 "HgN/A
11:50 pm
Thu, Oct 17
54 °FPartly cloudy.9 mph100%29.89 "HgN/A
11:20 pm54 °FMostly cloudy.6 mph100%29.89 "HgN/A
10:20 pm55 °FPartly cloudy.10 mph94%29.89 "HgN/A
9:50 pm55 °FLight rain. Passing clouds.12 mph94%29.89 "HgN/A
9:20 pm55 °FLight rain. Partly cloudy.12 mph94%29.89 "Hg3 mi
8:50 pm55 °FLight rain. Partly cloudy.9 mph94%29.89 "HgN/A
8:20 pm55 °FLight rain. Passing clouds.9 mph94%29.89 "HgN/A
7:50 pm55 °FPartly cloudy.10 mph94%29.89 "Hg5 mi
7:20 pm55 °FLight rain. Fog.10 mph94%29.89 "Hg3 mi
6:50 pm55 °FLight rain. Fog.13 mph94%29.86 "Hg2 mi
6:20 pm55 °FLight rain. Broken clouds.12 mph94%29.89 "Hg2 mi
4:20 pm55 °FRain. Partly sunny.8 mph94%29.89 "Hg6 mi
3:50 pm55 °FRain. Broken clouds.8 mph94%29.89 "Hg5 mi
3:20 pm55 °FRain. Partly sunny.10 mph94%29.89 "HgN/A
2:50 pm55 °FRain. Broken clouds.10 mph100%29.89 "Hg6 mi
2:20 pm55 °FRain. Broken clouds.10 mph94%29.92 "HgN/A
1:50 pm55 °FLight rain. Broken clouds.10 mph94%29.92 "HgN/A
1:20 pm55 °FBroken clouds.10 mph94%29.92 "HgN/A
12:50 pm55 °FBroken clouds.12 mph94%29.92 "HgN/A
12:20 pm55 °FDrizzle. Broken clouds.12 mph94%29.92 "Hg2 mi
11:50 am55 °FDrizzle. Broken clouds.9 mph94%29.92 "Hg2 mi
11:20 am54 °FDrizzle. Broken clouds.10 mph100%29.92 "Hg4 mi
Weather by CustomWeather, © 2019

See weather overview